Tracking 18785 objects as of 23-July-2017
HD Live streaming from Space Station
objects crossing your sky now
MAYAK may become the brightest orbital object in the night sky!
Where is MAYAK now?
How to spot MAYAK

IRIDIUM 113

Track IRIDIUM 113 now!
10-day predictions
IRIDIUM 113 is classified as:


NORAD ID: 42803
Int'l Code: 2017-039A
Perigee: 612.5 km
Apogee: 634.2 km
Inclination: 85.7 °
Period: 97.0 minutes
Semi major axis: 6994 km
RCS: Unknown
Launch date: June 25, 2017
Source: United States (US)
Launch site: AIR FORCE WESTERN TEST RANGE (AFWTR)
Your satellite tracking list
Your tracking list is empty





NASA's NSSDC Master Catalog

Two Line Element Set (TLE):
1 42803U 17039A   17203.72734407 +.00000181 +00000-0 +18135-4 0  9996
2 42803 085.7027 271.9358 0015532 137.9291 222.3127 14.84171337003989
Source of the keplerian elements: AFSPC